OpenBCM V2.0.3 (Linux)

Packet Radio Mailbox

IZ3LSV

[San Dona' di P. JN]

 Login: GUEST





  
I0OJJ  > AMSAT    07.06.26 02:45l 329 Lines 15514 Bytes #999 (0) @ WW
BID : 24K_IR0EQ
Read: GUEST
Subj: 2Line Orbital Elements
Path: IZ3LSV<IR1UAW<IR1UAW<IR0AAB<I0OJJ<IR0EQ
Sent: 260607/0027z @:IR0EQ.ITA.EU [Rome] $:24K_IR0EQ

>From i0ojj%ir0eq.ita.eu@i0ojj.ampr.org Sun Jun  7 02:28:23 2026
Received: from i0ojj.ampr.org by i0ojj.ampr.org (JNOS2.0q.1) with SMTP
	id AA17061913 ; Sun, 07 Jun 2026 02:28:23 +0200
Message-Id: <24K_IR0EQ@i0ojj.bbs>
>From: i0ojj@ir0eq.ita.eu
X-JNOS-User-Port: Telnet   (i0ojj @ 44.27.18.9)  ->   Sending message

>From i0ojj@rgate.ampr.org Sun Jun  7 02:27:18 2026
Received: from rgate.ampr.org by rgate.ampr.org (JNOS2.0q.1) with SMTP
	id AA2756 ; Sun, 07 Jun 2026 02:27:18 +0200
Received: by rgate.ampr.org with SMTP
	id AA2753 ; Sun, 07 Jun 2026 02:27:03 +0200
Message-Id: <2754@rgate.ampr.org>
>From: i0ojj@rgate.ampr.org

SB KEPS @ AMSAT  $ORB26158.1
2Line Orbital Elements 26158.AMSAT

QST de W1STR

AMSAT Orbital Elements for Amateur Satellites in TLE Format
>From Orbital Analysis Office
New England Sci-Tech STEM Education Center
Natick MA June 07, 2026
To all radio amateurs


These element sets describe the orbits of various satellites 
in use by the amateur radio community. For details see:
www.amsat.org/keplerian-elements-formats/

A daily update of element sets is available at:
www.amsat.org/tle/daily-bulletin.txt
or without bulletin text:
www.amsat.org/tle/dailytle.txt


AO-07
1 07530U 74089B   26157.79404168 -.00000046  00000-0  53545-5 0  9991
2 07530 101.9901 170.9321 0012467 149.5020  23.6960 12.53697891359219
UO-11
1 14781U 84021B   26157.68340786  .00001303  00000-0  13826-3 0  9999
2 14781  97.8052 123.3759 0006693 208.6330 151.4521 14.90757893255565
AO-27
1 22825U 93061C   26157.16166304  .00000127  00000-0  65390-4 0  9993
2 22825  98.6881 224.5788 0009319 128.3120 231.8902 14.30939453705420
FO-29
1 24278U 96046B   26157.81233277 -.00000024  00000-0  81643-5 0  9996
2 24278  98.5249   8.1055 0350721 123.2843 240.2413 13.53273649471766
GO-32
1 25397U 98043D   26157.59817633  .00000069  00000-0  49896-4 0  9998
2 25397  99.0065 150.0898 0000464 193.9791 166.1374 14.24426350449827
ISS
1 25544U 98067A   26157.86947977  .00009276  00000-0  17237-3 0  9995
2 25544  51.6338 351.1688 0006978 142.0049 218.1433 15.49642340570158
NO-44
1 26931U 01043C   26157.61264853  .00000160  00000-0  90579-4 0  9996
2 26931  67.0513 271.6217 0006117 264.1922  95.8483 14.31952422288932
SO-50
1 27607U 02058C   26157.70320937  .00001144  00000-0  15193-3 0  9991
2 27607  64.5504 161.4222 0075466 264.4088  94.8408 14.83024338262904
CO-55
1 27844U 03031E   26157.49994927  .00000321  00000-0  15775-3 0  9990
2 27844  98.6735 166.1932 0008851 210.1158 149.9513 14.24329258190151
RS-22
1 27939U 03042A   26157.89863172  .00001485  00000-0  23703-3 0  9990
2 27939  98.3470 341.9669 0010242 306.4946 160.0415 14.73450646214039
CO-65
1 32785U 08021C   26157.77451933  .00006623  00000-0  41855-3 0  9999
2 32785  97.8270 138.9776 0010426  69.3046 290.9298 15.09350971983629
CO-66
1 32791U 08021J   26157.55833225  .00023420  00000-0  75009-3 0  9992
2 32791  97.7518 154.9517 0002602  35.3933 324.7480 15.32385592985664
RS-30
1 32953U 08025A   26157.87775050 -.00000016  00000-0 -18451-3 0  9998
2 32953  82.5045   1.8542 0019300 337.0035  23.0179 12.43178690818417
SRMSAT
1 37841U 11058D   26157.27188351  .00000385  00000-0  65061-4 0  9992
2 37841  19.9704 125.5359 0011947  84.3565  18.6414 14.11573396756279
ZACUBE-1
1 39417U 13066B   26157.67555399  .00004996  00000-0  38849-3 0  9993
2 39417  97.8101 119.9558 0039963 284.7807  74.8990 15.01121821679153
Delfi-N3xt
1 39428U 13066N   26157.00059647  .00008311  00000-0  72666-3 0  9997
2 39428  97.8345  77.3232 0072728 243.3800 115.9957 14.94974023672953
GOMX-1
1 39430U 13066Q   26157.83560622  .00001996  00000-0  30356-3 0  9993
2 39430  97.6490 358.9510 0130117 110.4403 251.0830 14.69419907668394
LO-74
1 39440U 13066AA  26156.80918561  .00005560  00000-0  51354-3 0  9991
2 39440  97.8908 105.7402 0059435  65.9901 294.7524 14.93668030675290
AO-73
1 39444U 13066AE  26157.18462751  .00009267  00000-0  57636-3 0  9999
2 39444  97.8278 128.4023 0034656 239.5624 120.2179 15.09358417678008
DTUSAT-2
1 40030U 14033W   26157.73596317  .00009449  00000-0  51122-3 0  9990
2 40030  98.0869 154.8006 0006149 269.2028  90.8497 15.14884473651107
LILACSAT-2
1 40908U 15049K   26157.04825478  .00022779  00000-0  39229-3 0  9994
2 40908  97.4656 193.4688 0005322 299.3702  60.7018 15.51071560594026
Horyu-4
1 41340U 16012D   26157.40366388  .00388649  00000-0  12904-2 0  9997
2 41340  30.9846 157.7637 0002648 198.1452 161.9114 15.88250571569094
Lapan A3
1 41603U 16040E   26157.87836156  .00003845  00000-0  12259-3 0  9992
2 41603  97.1490 154.3635 0011899  58.9108 301.3301 15.33039389553235
CAS-2T
1 41847U 16066G   26157.50497052  .00002047  00000-0  29425-3 0  9994
2 41847  98.3816 233.3631 0342402 161.8018 199.5790 14.44659219503252
TechnoSat
1 42829U 17042E   26157.41131952  .00003563  00000-0  25504-3 0  9992
2 42829  97.4272 315.4814 0018943 127.9977 232.2964 15.04891353485083
AO-91
1 43017U 17073E   26157.62389250  .00011671  00000-0  50849-3 0  9994
2 43017  97.4716  25.0553 0151174   5.8791 354.4168 15.12539966463797
S-Net D
1 43186U 18014G   26157.64153763  .00005694  00000-0  29481-3 0  9993
2 43186  97.5366  62.4982 0009756  62.0124 298.2095 15.16571751457160
S-Net B
1 43187U 18014H   26157.45484124  .00006078  00000-0  31469-3 0  9997
2 43187  97.5374  62.2988 0010382  58.1599 302.0643 15.16540940457139
S-Net A
1 43188U 18014J   26157.64047150  .00005665  00000-0  29325-3 0  9992
2 43188  97.5379  62.6903 0010304  58.0944 302.1289 15.16579165457164
S-Net C
1 43189U 18014K   26156.99678978  .00006551  00000-0  33891-3 0  9996
2 43189  97.5399  62.1237 0011497  53.0599 307.1685 15.16527728455618
Ten-Koh
1 43677U 18084G   26157.80405837  .00002973  00000-0  22627-3 0  9997
2 43677  98.0783 349.7293 0010376 147.4473 212.7392 15.02899371414604
PO-101
1 43678U 18084H   26157.83310244  .00003156  00000-0  25599-3 0  9993
2 43678  98.1164 353.5930 0011938 204.2968 155.7693 15.00403310414664
QO-100
1 43700U 18090A   26157.89851705  .00000158  00000-0  00000+0 0  9999
2 43700   0.0137  28.1745 0001924  82.6526 133.7487  1.00273537 27571
MinXSS-2
1 43758U 18099A   26157.80415435  .00038858  00000-0  78950-3 0  9999
2 43758  97.4534 233.7903 0006013 300.0542  60.0110 15.46207303412525
AO-95
1 43770U 18099N   26157.13129568  .00016192  00000-0  62215-3 0  9992
2 43770  97.4387 217.4205 0009175  36.3927 323.7934 15.26474352411538
SNUSat 2
1 43782U 18099AA  26157.61519076  .00009781  00000-0  43478-3 0  9991
2 43782  97.4065 211.1622 0009391 341.3121  18.7768 15.21679914411423
SnugLite
1 43784U 18099AC  26157.39719741  .00015843  00000-0  60096-3 0  9990
2 43784  97.3868 211.7848 0001995   1.9176 358.2070 15.26941409411673
ITASat 1
1 43786U 18099AE  26157.61340441  .00008490  00000-0  40880-3 0  9993
2 43786  97.4030 209.3372 0013231  36.5180 323.6954 15.18923323411300
EAGLET 1
1 43790U 18099AJ  26157.60268406  .00005177  00000-0  29754-3 0  9993
2 43790  97.4235 207.5520 0011768  30.5570 329.6344 15.12861242410737
ESEO
1 43792U 18099AL  26157.60346281  .00001539  00000-0  11483-3 0  9991
2 43792  97.3966 195.4449 0012404  16.5963 343.5667 15.04208140410211
JO-97
1 43803U 18099AX  26157.13319170  .00023609  00000-0  73456-3 0  9999
2 43803  97.4134 219.9330 0004154 316.9785  43.1132 15.33299760411935
Suomi 100
1 43804U 18099AY  26157.14105629  .00016293  00000-0  59484-3 0  9999
2 43804  97.4185 217.5776 0008701 325.8721  34.1958 15.28167482411734
ISAT
1 43879U 18111D   26157.60785544  .00106545  00000-0  11444-2 0  9990
2 43879  97.5887  92.0294 0002662  48.8199 311.3288 15.63421581409519
UWE-4
1 43880U 18111E   26157.59884956  .00041427  00000-0  86289-3 0  9994
2 43880  97.5857  85.5068 0007550  22.5436 337.6143 15.45454015409146
Sparrow
1 43881U 18111F   26157.57053122  .00170212  00000-0  13117-2 0  9990
2 43881  97.6123  97.4260 0004926  98.9379 261.2441 15.71444516409706
Prox-1
1 44339U 19036A   26157.74734571  .00016297  00000-0  16040-2 0  9999
2 44339  23.9936 183.9779 0005357 269.3753  90.6132 14.90365640371916
Taurus 1
1 44530U 19059C   26157.84290286  .00007821  00000-0  12535-2 0  9996
2 44530  98.6419 322.0306 0007981 352.6139   7.4948 14.71990269357123
TO-108
1 44881U 19093C   26157.81317560  .00000637  00000-0  77918-4 0  9991
2 44881  97.7528 230.2975 0014786 117.8632 242.4084 14.86500407349877
RS-44
1 44909U 19096E   26157.76340289  .00000011  00000-0 -32385-5 0  9990
2 44909  82.5218 346.6331 0217706 168.4833 192.1366 12.79748548301014
SALSAT
1 46495U 20068K   26157.74488442  .00010129  00000-0  35498-3 0  9991
2 46495  97.8851 160.1753 0009050 349.8452  10.2602 15.29647917313762
CSS (TIANHE-1)
1 48274U 21035A   26157.67381584  .00028669  00000-0  34211-3 0  9994
2 48274  41.4692  25.9625 0009150 355.7318   4.3441 15.60361832291529
CUTE
1 49263U 21088D   26157.56203434  .00369830  52890-4  12323-2 0  9991
2 49263  97.4157 255.8534 0007651 257.6535 102.3881 15.90178096260864
TeikyoSat 4
1 49396U 21102B   26157.58063265  .00002151  00000-0  13800-3 0  9997
2 49396  97.3670 187.4763 0011236 337.0839  22.9888 15.09470223251128
Z-Sat
1 49399U 21102E   26157.85036382  .00004124  00000-0  20446-3 0  9996
2 49399  97.3329 193.4876 0014884 285.4174  74.5416 15.18184179251878
KOSEN 1
1 49402U 21102H   26157.39301767  .00010016  00000-0  38340-3 0  9991
2 49402  97.3192 199.7609 0012263 241.5706 118.4298 15.26685125252375
HO-113
1 50466U 21131B   26157.84995713  .00000417  00000-0  14260-3 0  9994
2 50466  98.4975 250.2957 0005159 120.3150 239.8550 14.41347595233628
SNUGLITE 2
1 52899U 22065F   26157.64475319  .00001132  00000-0  22358-3 0  9998
2 52899  98.2192 302.4950 0008561  62.6309 297.5763 14.64328514209452
